Lexington Weather

Lexington, Massachusetts, USA

27°F
12/12/2019 4:55pm 
  • Lexington Conditions: Partly cloudy
  • Temperature: 26.6°F / -3.0°CColder 2.0°F than last hour.
  • Dew Point: 20.1°FIncreased 0.3°Fsince last hour.
  • Relative Humidity: 76%Increased 7.0% since last hour.
  • Wind: Wind from WSW WSW 2 mph, 10-min avg: 1 mph, gust: 2 mph
  • Barometer: 30.66 in Steady
  • Visibility: 10 miles
  • Snow Today: 0.0 in
  •   

Regional Weather Roundup
for Boston / Norton, MA

        
000
ASUS41 KBOX 110110
RWRBOX

REGIONAL WEATHER ROUNDUP
NATIONAL WEATHER SERVICE BOSTON/NORTON MA
800 PM EST TUE DEC 10 2019

NOTE:  "FAIR" INDICATES FEW OR NO CLOUDS BELOW 12,000 FEET WITH NO 
SIGNIFICANT WEATHER AND/OR OBSTRUCTIONS TO VISIBILITY.

MAZALL-110200-
EASTERN MASSACHUSETTS
  
CITY           SKY/WX    TMP DP  RH WIND       PRES   REMARKS
BOSTON         LGT RAIN  51  40  65 NW17G24   29.91R                  
BEVERLY        LGT RAIN  48  41  76 NW17      29.89R                  
LAWRENCE       RAIN      45  39  79 W9        29.93R                  
BEDFORD        LGT RAIN  47  40  76 W14G20    29.91R                  
BLUE HILL        N/A     44  40  85 NW15G29   29.89R                  
NORWOOD        CLOUDY    50  41  71 W12       29.92R                  
MARSHFIELD     CLOUDY    55  55 100 VRB7G13   29.88R                  
PLYMOUTH       CLOUDY    53  51  93 SW10      29.89R                  
TAUNTON        CLOUDY    55  50  83 SW5       29.89R                  
NEW BEDFORD    CLOUDY    53  51  93 SW8       29.90R                  
$$

MAZALL-110200-
CAPE COD AND THE ISLANDS
  
CITY           SKY/WX    TMP DP  RH WIND       PRES   REMARKS
FALMOUTH       DRIZZLE   52  52 100 W18G30    29.91R                  
HYANNIS        CLOUDY    52  49  89 S7        29.90R                  
CHATHAM        CLOUDY    51  51 100 W10G18    29.92R                  
PROVINCETOWN   CLOUDY    51  50  96 SW15      29.89R                  
NANTUCKET      CLOUDY    53  51  93 W13       29.93R FOG              
MARTHAS VNYRD  LGT RAIN  54  53  97 SW12G20   29.92R                  
$$
 
MAZALL-110200-
CENTRAL AND WESTERN MASSACHUSETTS
  
CITY           SKY/WX    TMP DP  RH WIND       PRES   REMARKS
WORCESTER      LGT RAIN  38  35  89 W17G29    29.89S WCI  28          
FITCHBURG      LGT RAIN  42  36  79 NW8       29.93R                  
ORANGE         CLOUDY    41  34  76 NW7       29.95R                  
SPRINGFIELD    CLOUDY    40  35  81 NW9       29.93S                  
WESTFIELD      CLOUDY    39  34  82 N8        29.94S                  
NORTH ADAMS    MIX PCPN  36  31  82 W7        29.95R WCI  30          
PITTSFIELD     LGT SNOW  34  30  85 NW7       29.93F FOG     WCI  28  
$$
 
RIZALL-110200-
RHODE ISLAND
  
CITY           SKY/WX    TMP DP  RH WIND       PRES   REMARKS
PROVIDENCE     CLOUDY    54  51  90 NW15G24   29.91R                  
NEWPORT        CLOUDY    53  50  89 VRB5      29.90R FOG              
BLOCK ISLAND   LGT RAIN  51  49  92 SW14      29.93R                  
SMITHFIELD     CLOUDY    44  39  82 NW16G26   29.93R                  
WESTERLY       MOCLDY    53  49  86 SW10      29.91R                  
$$
 
CTZALL-110200-
CONNECTICUT
  
CITY           SKY/WX    TMP DP  RH WIND       PRES   REMARKS
BRADLEY INTL   CLOUDY    41  36  82 NE7       29.94S                  
HARTFORD       CLOUDY    44  39  82 N5        29.94F                  
BRIDGEPORT     LGT RAIN  51  44  77 NW9       29.96R                  
DANBURY        CLOUDY    46  39  76 W6        29.94F                  
GROTON         CLOUDY    51  50  96 W12       29.91R                  
NEW HAVEN      CLOUDY    52  44  74 NW14G22   29.95R                  
CHESTER        MOCLDY    46  43  87 NW12      29.94R                  
MERIDEN        CLOUDY    46  40  79 N3        29.95S                  
WILLIMANTIC    LGT RAIN  43  39  86 NW8       29.96R                  
OXFORD         LGT RAIN  44  40  85 W8        29.94S                  
$$

MEZ002-015-021-024-NHZ003-005-008-011-012-014-VTZ005-008-110200-
NORTHERN NEW ENGLAND
  
CITY           SKY/WX    TMP DP  RH WIND       PRES   REMARKS
PORTLAND ME    LGT RAIN  50  42  74 W13       29.86R                  
BANGOR ME      LGT RAIN  45  39  79 NW12      29.80R                  
CONCORD NH     CLOUDY    42  36  79 W9        29.92R                  
MANCHESTER NH  LGT RAIN  44  36  73 W8        29.90R                  
NASHUA NH      LGT RAIN  42  41  96 NW8       29.93R                  
PORTSMOUTH NH  LGT RAIN  45  40  82 NW14G23   29.87                   
JAFFREY NH     CLOUDY    39  34  82 W7        29.91R                  
KEENE NH       CLOUDY    40  34  79 NW6       29.94R                  
BURLINGTON VT  CLOUDY    36  25  64 N12       29.97R WCI  28          
MT. WASHINGTON BLWGSNOW  16  16 100 W70G81      N/A  VSB 0   WCI -12  
$$

NYZ052-076-110200-
EASTERN NEW YORK
  
CITY           SKY/WX    TMP DP  RH WIND       PRES   REMARKS
ALBANY         FLURRIES  37  30  75 NW8       30.01R WCI  31          
NEW YORK CITY  CLOUDY    53  42  66 W9        29.94R                  
$$
 
ANZALL-110200-
MARINE OBSERVATIONS
  
STATION/POSITION TIME  TEMP    WIND        PRES    VSBY  WAVE
                       AIR SEA DIR/SP/G                  HT/PER
                 (UTC) (F)     (DEG/KT/KT) (MB)    (MI)  (FT/S)
BOSTON BUOY      0050   51 48  300/ 21/ 25 1010.8R         3/13
BUZZARDS BAY     0000   51     230/ 19/ 20 1012.7R
NANTUCKET SOUND  0030   48                   N/A
MASS BAY-STELLWA 0004   49 47  240/  8/ 10 1008.4R  1 7/8
ISLE OF SHOALS   0000   52     250/ 18/ 22 1009.7R
S OF BLOCK IS    0100      53                N/A          10/11
$$

......................KEY.........................
  SKY/WX - SKY CONDITION/PRESENT WEATHER
  TMP    - TEMPERATURE IN FAHRENHEIT
  DWPT   - DEWPOINT IN FAHRENHEIT
  RH     - RELATIVE HUMIDITY IN PERCENT
  WIND   - DIRECTION AND SPEED IN MPH
  PRES   - MEAN SEA LEVEL PRESSURE IN INCHES OF HG
  WCI    - WIND CHILL INDEX
  VSB    - VISIBILITY IN MILES
  HX     - HEAT INDEX
  TC     - TEMPERATURE IN CELSIUS
  VRB    - VARIABLE WIND DIRECTION
  N/A    - NOT AVAILABLE
  
      

Other recent Regional Weather Roundups

Thu Dec 12, 4:10pm

Thu Dec 12, 4:01pm

Thu Dec 12, 3:10pm

Thu Dec 12, 3:00pm

Thu Dec 12, 2:10pm

Thu Dec 12, 2:01pm

Thu Dec 12, 1:10pm

Thu Dec 12, 1:00pm

Thu Dec 12, 12:10pm

Thu Dec 12, 12:00pm

Thu Dec 12, 11:10am

Thu Dec 12, 11:00am

Thu Dec 12, 10:10am

Thu Dec 12, 8:10am

Thu Dec 12, 8:00am

Thu Dec 12, 7:10am

Thu Dec 12, 7:00am

Thu Dec 12, 6:10am

Thu Dec 12, 6:00am

Thu Dec 12, 5:10am

Thu Dec 12, 5:00am

Thu Dec 12, 4:10am

Thu Dec 12, 4:00am

Thu Dec 12, 3:10am

Thu Dec 12, 3:00am

Thu Dec 12, 2:10am

Thu Dec 12, 2:00am

Thu Dec 12, 1:10am

Thu Dec 12, 1:00am

Thu Dec 12, 12:10am

Thu Dec 12, 12:00am

Wed Dec 11, 11:10pm

Wed Dec 11, 11:00pm

Wed Dec 11, 10:10pm

Wed Dec 11, 10:00pm

Wed Dec 11, 9:10pm

Wed Dec 11, 9:00pm

Wed Dec 11, 8:10pm

Wed Dec 11, 8:00pm

Wed Dec 11, 7:10pm

Wed Dec 11, 7:00pm

Wed Dec 11, 6:10pm

Wed Dec 11, 6:00pm

Wed Dec 11, 5:10pm

Wed Dec 11, 5:01pm

Wed Dec 11, 4:10pm

Wed Dec 11, 4:00pm

Wed Dec 11, 3:10pm

Wed Dec 11, 3:01pm

Wed Dec 11, 2:10pm

Wed Dec 11, 2:00pm

Wed Dec 11, 1:10pm

Wed Dec 11, 1:00pm

Wed Dec 11, 12:10pm

Wed Dec 11, 12:00pm

Wed Dec 11, 11:10am

Wed Dec 11, 11:00am

Wed Dec 11, 10:10am

Wed Dec 11, 10:00am

Wed Dec 11, 9:10am

Wed Dec 11, 9:00am

Wed Dec 11, 8:10am

Wed Dec 11, 8:00am

Wed Dec 11, 7:10am

Wed Dec 11, 7:00am

Wed Dec 11, 6:10am

Wed Dec 11, 6:00am

Wed Dec 11, 5:10am

Wed Dec 11, 5:00am

Wed Dec 11, 4:10am

Wed Dec 11, 4:00am

Wed Dec 11, 3:10am

Wed Dec 11, 3:01am

Wed Dec 11, 2:10am

Wed Dec 11, 2:01am

Wed Dec 11, 1:10am

Wed Dec 11, 1:00am

Wed Dec 11, 12:10am

Wed Dec 11, 12:00am

Tue Dec 10, 11:10pm

Tue Dec 10, 11:00pm

Tue Dec 10, 10:10pm

Tue Dec 10, 10:00pm

Tue Dec 10, 9:10pm

Tue Dec 10, 9:01pm

Tue Dec 10, 8:00pm

Tue Dec 10, 7:10pm

Tue Dec 10, 7:01pm

Tue Dec 10, 6:10pm

Tue Dec 10, 6:01pm

Tue Dec 10, 5:10pm

Tue Dec 10, 5:00pm

Tue Dec 10, 4:10pm

Tue Dec 10, 4:01pm

Tue Dec 10, 3:10pm

Tue Dec 10, 3:01pm

Tue Dec 10, 2:10pm

Tue Dec 10, 2:01pm

Tue Dec 10, 1:10pm

Tue Dec 10, 1:00pm

Tue Dec 10, 12:10pm

Tue Dec 10, 12:00pm

Tue Dec 10, 11:10am

Tue Dec 10, 11:00am

Tue Dec 10, 10:10am

Tue Dec 10, 10:00am

Tue Dec 10, 9:10am

Tue Dec 10, 9:01am

Tue Dec 10, 8:10am

Tue Dec 10, 8:00am

Tue Dec 10, 7:10am

Tue Dec 10, 7:00am

Tue Dec 10, 6:10am

Tue Dec 10, 6:00am

Tue Dec 10, 5:10am

Tue Dec 10, 5:00am

Tue Dec 10, 4:10am

Tue Dec 10, 4:00am

Tue Dec 10, 3:10am

Tue Dec 10, 3:00am

Tue Dec 10, 2:10am

Tue Dec 10, 2:01am

Tue Dec 10, 1:10am

Tue Dec 10, 1:00am

Tue Dec 10, 12:10am

Tue Dec 10, 12:01am

Mon Dec 9, 11:10pm

Mon Dec 9, 11:01pm

Mon Dec 9, 10:10pm

Mon Dec 9, 10:00pm

Mon Dec 9, 9:10pm

Mon Dec 9, 9:01pm

Mon Dec 9, 8:10pm

Mon Dec 9, 8:01pm

Mon Dec 9, 7:10pm

Mon Dec 9, 7:00pm

Mon Dec 9, 6:10pm

Mon Dec 9, 6:00pm

Mon Dec 9, 5:10pm

Mon Dec 9, 5:01pm

Meta data:

ID: 5d1a50a3-0c0f-44f1-a428-1d2658aeb664
Link: https://api.weather.gov/products/5d1a50a3-0c0f-44f1-a428-1d2658aeb664